Location: Izdebno
(52.6670°N, 16.2170°E)
Time: 09:51:39
(UTC+02:00)

A-11 Canister half - Pass Details

Date: 26 February 2024
Orbit: 1513 x 1686 km, 47.2° (Epoch: 24 April)

Event Time Altitude Azimuth Distance (km) Brightness Sun altitude
Exits shadow 01:20:03 25° 103° (ESE) 2,882 10.4 -43.9°
Drops below altitude 10° 01:24:26 10° 83° (E) 3,896 11.4 -43.6°
Sets 01:27:53 0° 75° (ENE) 4,863 12.1 -43.4°
